Maxwell AFB, AL

12:06 PM CDT on May 28, 2017 (GMT -0500)
Maxwell Air Force Base

Weather History for KMXF - September, 2013

Change the Weather History Date:

Saturday, September 14, 2013

  Actual Average Record
Temperature  
Mean Temperature 72 °F -  
Max Temperature 83 °F 86 °F 95 °F (2010)
Min Temperature 62 °F 67 °F 54 °F (2015)
Cooling Degree Days 8    
Growing Degree Days 22 (Base 50)    
Moisture  
Dew Point 60 °F    
Average Humidity 73    
Maximum Humidity 94    
Minimum Humidity 38    
Precipitation  
Precipitation 0.00 in - - ()
Sea Level Pressure  
Sea Level Pressure 29.98 in    
Wind  
Wind Speed 4 mph (North)    
Max Wind Speed 9 mph    
Max Gust Speed -    
Visibility 10 miles    
Events Rain    
Averages and records for this station are not official NWS values.
T = Trace of Precipitation, MM = Missing Value Source: NWS Daily Summary

Daily Weather History Graph

Daily Weather History Graph

Search for Another Location

Airport or City:

Trip Planner

Search our weather history database for the weather conditions in past years. The results will help you decide how hot, cold, wet, or windy it might be!

Date:

Astronomy

Sep. 14, 2013 Rise Set
Actual Time 6:28 AM CDT 6:52 PM CDT
Civil Twilight 6:04 AM CDT 7:17 PM CDT
Nautical Twilight 5:35 AM CDT 7:45 PM CDT
Astronomical Twilight 5:06 AM CDT 8:15 PM CDT
Moon 3:20 PM CDT (9/14) 1:13 AM CDT (9/14)
Length of Visible Light 13h 12m
Length of Day
12h 23m
Waxing Gibbous, 72% of the Moon is Illuminated
Sep 14
Waxing Gibbous
Sep 19
Full
Sep 26
Last Quarter
Oct 4
New
Oct 11
First Quarter

Hourly Weather History & Observations

Time (CDT) Temp. Heat Index Dew Point Humidity Pressure Visibility Wind Dir Wind Speed Gust Speed Precip Events Conditions
12:05 AM 71.6 °F - 64.4 °F 78% 29.90 in 10.0 mi North 2.3 mph - N/A Rain Light Rain
12:15 AM 69.8 °F - 62.6 °F 78% 29.90 in 10.0 mi NNE 4.6 mph - N/A   Clear
12:58 AM 69.6 °F - 62.8 °F 79% 29.91 in 10.0 mi North 4.6 mph - 0.00 in   Clear
1:58 AM 68.5 °F - 60.6 °F 76% 29.92 in 10.0 mi North 8.1 mph - N/A   Clear
2:58 AM 67.3 °F - 59.7 °F 77% 29.92 in 10.0 mi North 5.8 mph - N/A   Clear
3:58 AM 66.7 °F - 57.7 °F 73% 29.92 in 10.0 mi North 6.9 mph - N/A   Clear
4:58 AM 64.6 °F - 57.6 °F 78% 29.93 in 10.0 mi NNE 9.2 mph - N/A   Clear
5:58 AM 63.3 °F - 56.8 °F 79% 29.94 in 10.0 mi NNE 8.1 mph - N/A   Clear
6:58 AM 62.6 °F - 57.2 °F 82% 29.97 in 10.0 mi NNE 6.9 mph - N/A   Clear
7:58 AM 65.3 °F - 56.7 °F 74% 29.98 in 10.0 mi NNE 4.6 mph - N/A   Clear
8:58 AM 68.5 °F - 57.4 °F 67% 30.00 in 10.0 mi NNE 6.9 mph - N/A   Clear
9:58 AM 72.3 °F - 58.6 °F 62% 30.00 in 10.0 mi Variable 5.8 mph - N/A   Clear
10:58 AM 76.3 °F - 59.2 °F 55% 30.00 in 10.0 mi Variable 2.3 mph - N/A   Clear
11:58 AM 79.0 °F - 53.2 °F 41% 29.99 in 10.0 mi NNE 8.1 mph - N/A   Clear
12:58 PM 80.4 °F 80.4 °F 55.6 °F 42% 29.99 in 10.0 mi Variable 5.8 mph - N/A   Clear
1:58 PM 81.7 °F 81.4 °F 56.5 °F 42% 29.98 in 10.0 mi NNE 5.8 mph - N/A   Clear
2:58 PM 82.9 °F 82.1 °F 55.9 °F 39% 29.97 in 10.0 mi NNE 5.8 mph - N/A   Clear
3:58 PM 83.5 °F 82.5 °F 55.0 °F 38% 29.96 in 10.0 mi Variable 3.5 mph - N/A   Clear
4:58 PM 83.3 °F 82.3 °F 55.2 °F 38% 29.96 in 10.0 mi East 4.6 mph - N/A   Clear
5:58 PM 82.2 °F 81.5 °F 55.2 °F 39% 29.97 in 10.0 mi NE 4.6 mph - N/A   Clear
6:58 PM 74.5 °F - 59.5 °F 60% 29.98 in 10.0 mi NNE 2.3 mph - N/A   Clear
7:58 PM 68.7 °F - 63.0 °F 82% 29.99 in 10.0 mi NW 2.3 mph - N/A Rain Light Rain
8:07 PM 68.0 °F - 64.4 °F 88% 29.98 in 10.0 mi NNW 3.5 mph - N/A   Clear
8:58 PM 68.0 °F - 65.7 °F 92% 30.01 in 9.0 mi NNW 2.3 mph - 0.00 in   Clear
9:05 PM 66.2 °F - 64.4 °F 94% 30.00 in 8.0 mi NNW 2.3 mph - N/A Rain Light Rain
9:12 PM 66.2 °F - 64.4 °F 94% 30.00 in 10.0 mi NNW 1.2 mph - N/A   Clear
9:29 PM 66.2 °F - 64.4 °F 94% 30.01 in 10.0 mi NNW 1.2 mph - N/A Rain Light Rain
9:34 PM 66.2 °F - 64.4 °F 94% 30.01 in 7.0 mi North 3.5 mph - N/A   Clear
9:36 PM 66.2 °F - 64.4 °F 94% 30.01 in 7.0 mi North 2.3 mph - N/A Rain Light Rain
9:46 PM 68.0 °F - 64.4 °F 88% 30.01 in 10.0 mi NNE 1.2 mph - N/A   Clear
9:58 PM 67.5 °F - 63.5 °F 87% 30.03 in 7.0 mi Calm Calm - 0.00 in   Clear
10:18 PM 66.2 °F - 62.6 °F 88% 30.02 in 10.0 mi Variable 1.2 mph - N/A Rain Light Rain
10:23 PM 66.2 °F - 62.6 °F 88% 30.02 in 10.0 mi North 4.6 mph - N/A   Clear
10:58 PM 66.2 °F - 61.3 °F 84% 30.03 in 9.0 mi NNW 2.3 mph - 0.00 in   Clear
11:58 PM 64.9 °F - 60.6 °F 86% 30.04 in 10.0 mi ENE 2.3 mph - N/A   Clear